Change the Weather History Date:

Wednesday, May 1, 2013

  Actual Average Record
Temperature  
Mean Temperature 69 °F -  
Max Temperature 71 °F 78 °F 90 °F (2012)
Min Temperature 68 °F 59 °F 52 °F (1998)
Cooling Degree Days 4    
Growing Degree Days 19 (Base 50)    
Moisture  
Dew Point 63 °F    
Average Humidity 81    
Maximum Humidity 88    
Minimum Humidity 73    
Precipitation  
Precipitation 0.07 in - - ()
Sea Level Pressure  
Sea Level Pressure 29.92 in    
Wind  
Wind Speed 9 mph (East)    
Max Wind Speed 17 mph    
Max Gust Speed 28 mph    
Visibility 10 miles    
Events Rain    
Averages and records for this station are not official NWS values.
T = Trace of Precipitation, MM = Missing Value Source: NWS Daily Summary

Daily Weather History Graph

Daily Weather History Graph

Search for Another Location

Airport or City:

Trip Planner

Search our weather history database for the weather conditions in past years. The results will help you decide how hot, cold, wet, or windy it might be!

Date:

Astronomy

May. 01, 2013 Rise Set
Actual Time 6:03 AM CDT 7:26 PM CDT
Civil Twilight 5:38 AM CDT 7:52 PM CDT
Nautical Twilight 5:07 AM CDT 8:23 PM CDT
Astronomical Twilight 4:36 AM CDT 8:54 PM CDT
Moon 12:34 AM CDT (5/1) 11:41 AM CDT (5/1)
Length of Visible Light 14h 14m
Length of Day
13h 22m
Waning Gibbous, 59% of the Moon is Illuminated
May 1
Waning Gibbous
May 2
Last Quarter
May 9
New
May 17
First Quarter
May 24
Full

Hourly Weather History & Observations

Time (CDT) Temp. Dew Point Humidity Pressure Visibility Wind Dir Wind Speed Gust Speed Precip Events Conditions
12:56 AM 69.1 °F 64.0 °F 84% 29.91 in 10.0 mi SE 4.6 mph - N/A   Overcast
1:56 AM 68.0 °F 63.0 °F 84% 29.88 in 10.0 mi East 4.6 mph - 0.00 in Rain Light Rain
2:56 AM 68.0 °F 63.0 °F 84% 29.86 in 10.0 mi East 4.6 mph - 0.00 in Rain Light Rain
3:56 AM 68.0 °F 64.0 °F 87% 29.86 in 10.0 mi ENE 6.9 mph - 0.00 in   Scattered Clouds
4:56 AM 68.0 °F 64.0 °F 87% 29.87 in 10.0 mi East 6.9 mph - 0.00 in   Overcast
5:56 AM 68.0 °F 64.0 °F 87% 29.88 in 10.0 mi ENE 6.9 mph - 0.00 in Rain Light Rain
6:24 AM 68.0 °F 64.4 °F 88% 29.94 in 10.0 mi ENE 4.6 mph - 0.00 in   Overcast
6:35 AM 68.0 °F 64.4 °F 88% 29.94 in 10.0 mi ENE 5.8 mph - 0.00 in Rain Light Rain
6:56 AM 69.1 °F 64.0 °F 84% 29.90 in 9.0 mi ENE 6.9 mph - 0.00 in Rain Light Rain
7:27 AM 69.8 °F 64.4 °F 83% 29.96 in 8.0 mi East 8.1 mph - 0.00 in   Overcast
7:56 AM 70.0 °F 64.9 °F 84% 29.92 in 10.0 mi East 9.2 mph - 0.00 in   Overcast
8:13 AM 69.8 °F 64.4 °F 83% 29.95 in 9.0 mi East 12.7 mph 18.4 mph 0.00 in Rain Light Rain
8:24 AM 69.8 °F 64.4 °F 83% 29.94 in 10.0 mi East 12.7 mph 20.7 mph 0.00 in   Overcast
8:56 AM 70.0 °F 64.0 °F 81% 29.92 in 10.0 mi East 8.1 mph - 0.00 in   Overcast
9:56 AM 70.0 °F 63.0 °F 78% 29.95 in 10.0 mi East 9.2 mph - 0.00 in   Overcast
10:56 AM 69.1 °F 62.1 °F 78% 29.95 in 10.0 mi East 15.0 mph - 0.00 in   Overcast
11:56 AM 69.1 °F 60.1 °F 73% 29.94 in 10.0 mi East 15.0 mph - 0.00 in Rain Light Rain
12:48 PM 69.8 °F 62.6 °F 78% 29.96 in 10.0 mi East 12.7 mph - 0.07 in   Overcast
12:56 PM 69.1 °F 63.0 °F 81% 29.93 in 10.0 mi East 12.7 mph - 0.07 in   Overcast
1:56 PM 69.1 °F 61.0 °F 75% 29.92 in 7.0 mi East 16.1 mph 23.0 mph 0.00 in Rain Light Rain
2:20 PM 69.8 °F 62.6 °F 78% 29.96 in 10.0 mi East 15.0 mph 21.9 mph 0.00 in   Overcast
2:56 PM 69.1 °F 62.1 °F 78% 29.91 in 10.0 mi East 11.5 mph 21.9 mph 0.00 in   Overcast
3:56 PM 69.1 °F 62.1 °F 78% 29.90 in 10.0 mi East 12.7 mph 27.6 mph N/A   Overcast
4:56 PM 69.1 °F 62.1 °F 78% 29.89 in 10.0 mi East 11.5 mph 20.7 mph N/A   Overcast
5:30 PM 69.8 °F 62.6 °F 78% 29.93 in 10.0 mi East 12.7 mph - 0.00 in Rain Light Rain
5:56 PM 69.1 °F 61.0 °F 75% 29.89 in 10.0 mi East 15.0 mph 21.9 mph 0.00 in   Overcast
6:56 PM 69.1 °F 62.1 °F 78% 29.90 in 10.0 mi East 15.0 mph 21.9 mph N/A   Overcast
7:56 PM 69.1 °F 62.1 °F 78% 29.92 in 10.0 mi East 17.3 mph 23.0 mph N/A   Overcast
8:26 PM 68.0 °F 62.6 °F 83% 29.96 in 10.0 mi East 11.5 mph 21.9 mph 0.00 in Rain Light Rain
8:56 PM 68.0 °F 62.1 °F 81% 29.93 in 10.0 mi East 12.7 mph 21.9 mph 0.00 in   Overcast
9:56 PM 68.0 °F 62.1 °F 81% 29.93 in 10.0 mi East 16.1 mph 21.9 mph N/A   Overcast
10:26 PM 68.0 °F 62.6 °F 83% 29.98 in 10.0 mi East 11.5 mph 20.7 mph N/A   Overcast
10:56 PM 68.0 °F 62.1 °F 81% 29.93 in 10.0 mi East 15.0 mph 23.0 mph N/A   Overcast
11:56 PM 68.0 °F 61.0 °F 78% 29.93 in 10.0 mi East 15.0 mph 24.2 mph N/A   Overcast